TimeCST,TemperatureF,Dew PointF,Humidity,Sea Level PressureIn,VisibilityMPH,Wind Direction,Wind SpeedMPH,Gust SpeedMPH,PrecipitationIn,Events,Conditions,WindDirDegrees,DateUTC
12:56 AM,41.9,41.9,100,29.94,6.0,Calm,Calm,-,N/A,,Clear,0,2012-11-22 06:56:00
1:56 AM,43.9,41.9,93,29.92,7.0,South,5.8,-,N/A,,Clear,170,2012-11-22 07:56:00
2:56 AM,43.9,41.9,93,29.90,8.0,Calm,Calm,-,N/A,,Clear,0,2012-11-22 08:56:00
3:56 AM,43.0,41.0,93,29.86,8.0,Calm,Calm,-,N/A,,Clear,0,2012-11-22 09:56:00
4:56 AM,45.0,39.9,82,29.84,10.0,South,4.6,-,N/A,,Clear,170,2012-11-22 10:56:00
5:56 AM,45.0,38.8,79,29.82,10.0,Calm,Calm,-,N/A,,Clear,0,2012-11-22 11:56:00
6:56 AM,45.9,37.9,74,29.81,10.0,Calm,Calm,-,N/A,,Clear,0,2012-11-22 12:56:00
7:56 AM,46.9,38.8,73,29.81,9.0,Calm,Calm,-,N/A,,Clear,0,2012-11-22 13:56:00
8:56 AM,52.0,39.9,63,29.78,9.0,South,6.9,-,N/A,,Clear,180,2012-11-22 14:56:00
9:56 AM,57.9,39.9,51,29.77,10.0,South,9.2,-,N/A,,Clear,190,2012-11-22 15:56:00
10:56 AM,61.0,41.0,48,29.73,10.0,SW,18.4,28.8,N/A,,Clear,220,2012-11-22 16:56:00
11:56 AM,61.9,41.9,48,29.69,10.0,SSW,17.3,23.0,N/A,,Clear,200,2012-11-22 17:56:00
12:56 PM,63.0,41.9,46,29.66,10.0,SSW,15.0,20.7,N/A,,Clear,200,2012-11-22 18:56:00
1:56 PM,61.0,43.0,52,29.64,10.0,SSW,15.0,20.7,N/A,,Clear,200,2012-11-22 19:56:00
2:56 PM,59.9,43.9,55,29.65,10.0,SW,11.5,-,N/A,,Clear,220,2012-11-22 20:56:00
3:56 PM,59.0,43.9,57,29.65,10.0,SW,11.5,17.3,N/A,,Clear,220,2012-11-22 21:56:00
4:56 PM,56.8,43.9,62,29.65,10.0,Calm,Calm,-,N/A,,Partly Cloudy,0,2012-11-22 22:56:00
5:56 PM,54.9,43.9,66,29.64,10.0,Calm,Calm,-,N/A,,Mostly Cloudy,0,2012-11-22 23:56:00
6:56 PM,55.9,45.0,67,29.63,10.0,SSW,8.1,-,N/A,,Overcast,210,2012-11-23 00:56:00
7:56 PM,54.0,38.8,57,29.67,10.0,West,18.4,27.6,N/A,,Overcast,270,2012-11-23 01:56:00
8:46 PM,46.4,37.4,71,29.72,10.0,West,23.0,33.4,N/A,,Mostly Cloudy,280,2012-11-23 02:46:00
8:56 PM,45.0,36.0,71,29.73,10.0,West,24.2,28.8,N/A,,Overcast,270,2012-11-23 02:56:00
9:56 PM,41.0,32.0,70,29.75,10.0,WNW,18.4,24.2,N/A,,Overcast,290,2012-11-23 03:56:00
10:56 PM,38.8,30.0,71,29.77,10.0,WNW,21.9,32.2,N/A,,Overcast,290,2012-11-23 04:56:00
11:56 PM,36.9,27.1,68,29.78,10.0,WNW,24.2,32.2,N/A,,Overcast,300,2012-11-23 05:56:00